OBJECT K, 68989

Orbit data source: Space-Track

You're viewing an Uncataloged Satellite

Recently launched and/or uncataloged satellites may have evolving metadata. Metadata may include but not limited to: Owner, Maufacturer, Bus, Motor, and Mission.

OBJECT K, 68989 is a satellite in SSO that was launched on Sun, 03 May 2026 UTC via an FALCON 9 launch vehicle from the Air Force Western Test Range (AFWTR). Unknown objects in Earth's orbit typically refer to objects detected orbiting the Earth but have not yet been identified or cataloged. These objects could be anything from previously untracked satellites, spent rocket stages, debris from satellite collisions, or even natural meteoroids temporarily captured by Earth's gravity.

Loading next visibility...
Identifier
68989, 2026-100K
Orbit
SSO
Country
Flag of TBDTBD
Related business
None
Manufacturer
Unknown
Mission
Operational spacecraft
Bus & Motor
Unknown
Mass
Unknown
Launch date (UTC)
2026-05-03 (2 months ago)
Launch vehicle
FALCON 9
Launch site
Air Force Western Test Range (AFWTR)
Object type
Unknown
Shape & HBR
Unknown shape, 1.1 m
Radar Cross Section
Medium (>0.1 m² and <1 m²)

Expand to show TLE details & history
Last TLE update: 2 days ago

TLE from 2 days ago
0 OBJECT K
1 68989U 26100K   26174.27647232  .00001559  00000-0  16370-3 0  9992
2 68989  97.7389  71.5627 0007551 109.8645 250.3388 14.90885594  7609
Epoch: 2026-06-23T06:38Z
TLE epoch observation values (Epoch: 2026-06-23T06:38:07.208Z)
Latitude
0.00001°
Longitude
60.58231°
Altitude
599.989 km
Speed
7.559 km/s
True Right ascension
04h 46m 15s
True Declination
0° 00' 00"
Sunlit
Object was in daylight at epoch
Visualization orbit readout
Latitude
Unknown
Longitude
Unknown
Altitude
Unknown
Speed
Unknown
Apparent Right ascension
Unknown
Apparent Declination
Unknown
Sunlit
N/A
Visualization observer readout
Local Sidereal Time
07:37:37
Azimuth
Unknown
Elevation
Unknown
Doppler factor
Unknown
Orbital elements
Apogee altitude
597.455 km
Perigee altitude
586.929 km
Semi-major axis
6,970.329 km
Eccentricity
0.00076
Inclination
97.7389°
RAAN
71.5627°
Arg. of periapsis
109.8645°
True anomaly
250.25734°
Mean anomaly
250.3388°
Eccentric anomaly
250.29807°
Mean motion
3.72961 °/min
Orbital period
96.52 mins
BSTAR
0.0001637
Loading maneuver chart data...
Computing Atmospheric mass density...
Loading historical data...
Loading historical data...
Loading historical data...
Loading historical data...
Loading historical data...
Loading historical data...
Loading historical data...

Documentation

Showing up to 5 results
|